THY2474 LTFM-LTDB

Flight info

Callsign THY2474
Flight time N/A
Altitude 35000
Route VICEN1E/36 VICEN UT57 VEVUD UT341 BAG UW75 AZBUL UL601 URGUP UW75 KEMER
Aircraft A320/M-SDE3FGHIRWY/LB1

Departure

Time N/A
Airport İstanbul Airport (LTFM)

Arrival

Time 2026-05-06 22:04
Airport Çukurova International Airport (LTDB)
Time Latitude Longitude Altitude Speed Heading
2026-05-06 21:15 40.36621 31.31093 35090 ft 458 kts 97°
2026-05-06 21:15 40.35310 31.39252 35089 ft 458 kts 97°
2026-05-06 21:16 40.33994 31.47349 35087 ft 457 kts 97°
2026-05-06 21:16 40.32655 31.55538 35087 ft 458 kts 97°
2026-05-06 21:17 40.31324 31.63626 35083 ft 457 kts 97°
2026-05-06 21:17 40.29984 31.71725 35082 ft 458 kts 98°
2026-05-06 21:18 40.28634 31.79847 35081 ft 458 kts 98°
2026-05-06 21:18 40.27269 31.88006 35083 ft 458 kts 98°
2026-05-06 21:19 40.25715 31.96092 35080 ft 460 kts 102°
2026-05-06 21:19 40.23981 32.04067 35081 ft 460 kts 102°
2026-05-06 21:20 40.22229 32.12095 35085 ft 460 kts 102°
2026-05-06 21:20 40.20491 32.20051 35088 ft 460 kts 102°
2026-05-06 21:21 40.18782 32.27844 35089 ft 436 kts 102°
2026-05-06 21:21 40.17133 32.35354 35084 ft 431 kts 102°
2026-05-06 21:22 40.15479 32.42886 35091 ft 431 kts 102°
2026-05-06 21:22 40.13823 32.50382 35089 ft 432 kts 102°
2026-05-06 21:23 40.12170 32.57835 35088 ft 432 kts 102°
2026-05-06 21:23 40.10500 32.65343 35088 ft 432 kts 103°
2026-05-06 21:24 40.08756 32.72854 35087 ft 434 kts 108°
2026-05-06 21:24 40.05867 32.79792 35082 ft 440 kts 125°
2026-05-06 21:25 40.01612 32.85422 35084 ft 442 kts 142°
2026-05-06 21:25 39.96458 32.89777 35084 ft 442 kts 148°
2026-05-06 21:26 39.91243 32.93944 35085 ft 443 kts 148°
2026-05-06 21:26 39.86000 32.98193 35086 ft 442 kts 148°
2026-05-06 21:27 39.80795 33.02433 35090 ft 442 kts 148°
2026-05-06 21:27 39.75594 33.06671 35090 ft 442 kts 148°
2026-05-06 21:28 39.70408 33.10892 35089 ft 442 kts 148°
2026-05-06 21:28 39.65222 33.15104 35086 ft 442 kts 148°
2026-05-06 21:29 39.60008 33.19333 35084 ft 441 kts 148°
2026-05-06 21:29 39.54803 33.23546 35086 ft 441 kts 148°
2026-05-06 21:30 39.49639 33.27719 35090 ft 441 kts 148°
2026-05-06 21:30 39.44427 33.31907 35090 ft 441 kts 150°
2026-05-06 21:31 39.39079 33.35646 35090 ft 441 kts 152°
2026-05-06 21:31 39.33773 33.39672 35087 ft 441 kts 149°
2026-05-06 21:32 39.28610 33.43731 35087 ft 440 kts 149°
2026-05-06 21:32 39.20657 33.49945 35089 ft 456 kts 149°
2026-05-06 21:33 39.15165 33.54221 35090 ft 468 kts 149°
2026-05-06 21:33 39.09598 33.58556 35090 ft 469 kts 149°
2026-05-06 21:34 39.04031 33.62886 35085 ft 469 kts 149°
2026-05-06 21:34 38.98441 33.67226 35084 ft 469 kts 150°
2026-05-06 21:35 38.92885 33.71532 35086 ft 470 kts 150°
2026-05-06 21:35 38.87308 33.75846 35088 ft 469 kts 150°
2026-05-06 21:36 38.81730 33.80152 35086 ft 468 kts 150°
2026-05-06 21:36 38.76152 33.84449 35087 ft 468 kts 150°
2026-05-06 21:37 38.70628 33.88698 35091 ft 467 kts 150°
2026-05-06 21:37 38.65076 33.92961 35091 ft 467 kts 150°
2026-05-06 21:38 38.59505 33.97230 35094 ft 467 kts 150°
2026-05-06 21:38 38.53954 34.01476 35096 ft 466 kts 150°
2026-05-06 21:39 38.48409 34.05711 35099 ft 465 kts 150°
2026-05-06 21:39 38.42875 34.09930 34959 ft 466 kts 150°
2026-05-06 21:40 38.40126 34.12022 34751 ft 464 kts 150°
2026-05-06 21:40 38.37380 34.14111 34549 ft 462 kts 151°
2026-05-06 21:40 38.34598 34.16226 34348 ft 460 kts 150°
2026-05-06 21:40 38.31861 34.18303 34080 ft 458 kts 151°
2026-05-06 21:41 38.29162 34.20350 33648 ft 457 kts 150°
2026-05-06 21:41 38.26421 34.22427 33079 ft 458 kts 150°
2026-05-06 21:41 38.23678 34.24503 32468 ft 460 kts 151°
2026-05-06 21:41 38.20944 34.26571 31836 ft 462 kts 151°
2026-05-06 21:42 38.18203 34.28643 31181 ft 464 kts 151°
2026-05-06 21:42 38.15463 34.30712 30519 ft 466 kts 151°
2026-05-06 21:42 38.12671 34.32818 29793 ft 467 kts 150°
2026-05-06 21:42 38.09893 34.34912 29089 ft 467 kts 151°
2026-05-06 21:43 38.07111 34.37009 28379 ft 467 kts 151°
2026-05-06 21:43 38.04303 34.39122 27639 ft 467 kts 151°
2026-05-06 21:43 38.01531 34.41206 26911 ft 467 kts 151°
2026-05-06 21:43 37.98757 34.43291 26157 ft 467 kts 150°
2026-05-06 21:44 37.95995 34.45365 25619 ft 462 kts 151°
2026-05-06 21:44 37.93257 34.47418 25126 ft 456 kts 151°
2026-05-06 21:44 37.90522 34.49469 24615 ft 451 kts 151°
2026-05-06 21:44 37.87856 34.51479 24100 ft 446 kts 150°
2026-05-06 21:45 37.85235 34.53476 23593 ft 442 kts 150°
2026-05-06 21:45 37.82624 34.55469 23108 ft 437 kts 150°
2026-05-06 21:45 37.80030 34.57447 22617 ft 434 kts 150°
2026-05-06 21:45 37.77468 34.59397 22114 ft 430 kts 150°
2026-05-06 21:46 37.74908 34.61344 21630 ft 426 kts 150°
2026-05-06 21:46 37.72377 34.63268 21156 ft 422 kts 150°
2026-05-06 21:46 37.69907 34.65143 20665 ft 418 kts 151°
2026-05-06 21:46 37.67397 34.67045 20160 ft 415 kts 151°
2026-05-06 21:47 37.64958 34.68892 19656 ft 412 kts 150°
2026-05-06 21:47 37.62493 34.70741 19149 ft 408 kts 153°
2026-05-06 21:47 37.59967 34.72295 18644 ft 404 kts 159°
2026-05-06 21:47 37.57350 34.73455 18144 ft 399 kts 166°
2026-05-06 21:48 37.54671 34.74330 17650 ft 396 kts 168°
2026-05-06 21:48 37.52004 34.75137 17159 ft 392 kts 168°
2026-05-06 21:48 37.49368 34.75931 16669 ft 389 kts 168°
2026-05-06 21:48 37.46750 34.76726 16182 ft 386 kts 168°
2026-05-06 21:49 37.44161 34.77520 15692 ft 383 kts 168°
2026-05-06 21:49 37.41561 34.78319 15195 ft 380 kts 167°
2026-05-06 21:49 37.39019 34.79104 14706 ft 377 kts 167°
2026-05-06 21:49 37.36488 34.79884 14215 ft 374 kts 167°
2026-05-06 21:50 37.33956 34.80665 13729 ft 371 kts 167°
2026-05-06 21:50 37.31480 34.81428 13239 ft 368 kts 167°
2026-05-06 21:50 37.28968 34.82202 12745 ft 365 kts 166°
2026-05-06 21:50 37.26534 34.82951 12257 ft 362 kts 166°
2026-05-06 21:51 37.24089 34.83702 11764 ft 360 kts 166°
2026-05-06 21:51 37.21641 34.84454 11259 ft 357 kts 166°
2026-05-06 21:51 37.19251 34.85189 10796 ft 353 kts 166°
2026-05-06 21:51 37.16877 34.85918 10563 ft 343 kts 166°
2026-05-06 21:52 37.14642 34.86605 10415 ft 320 kts 166°
2026-05-06 21:52 37.12555 34.87246 10271 ft 295 kts 165°
2026-05-06 21:52 37.10617 34.87840 10150 ft 283 kts 165°
2026-05-06 21:52 37.08713 34.88425 10025 ft 278 kts 165°
2026-05-06 21:53 37.06838 34.89000 9795 ft 278 kts 165°
2026-05-06 21:53 37.04968 34.89574 9425 ft 277 kts 165°
2026-05-06 21:53 37.03108 34.90145 9076 ft 276 kts 165°
2026-05-06 21:53 37.01220 34.90723 8740 ft 276 kts 165°
2026-05-06 21:54 36.99357 34.91292 8398 ft 276 kts 165°
2026-05-06 21:54 36.97482 34.91865 8061 ft 275 kts 165°
2026-05-06 21:54 36.95646 34.92426 7735 ft 274 kts 165°
2026-05-06 21:54 36.93766 34.92849 7375 ft 274 kts 180°
2026-05-06 21:55 36.91906 34.92302 7032 ft 274 kts 207°
2026-05-06 21:55 36.90284 34.91101 6717 ft 272 kts 212°
2026-05-06 21:55 36.88685 34.89830 6397 ft 271 kts 213°
2026-05-06 21:55 36.87091 34.88571 6072 ft 270 kts 212°
2026-05-06 21:56 36.85484 34.87324 5758 ft 268 kts 212°
2026-05-06 21:56 36.83886 34.86100 5433 ft 267 kts 211°
2026-05-06 21:56 36.82306 34.84900 5140 ft 264 kts 211°
2026-05-06 21:56 36.80797 34.83757 5061 ft 247 kts 211°
2026-05-06 21:57 36.79376 34.82681 4951 ft 233 kts 211°
2026-05-06 21:57 36.77986 34.81767 4865 ft 228 kts 194°
2026-05-06 21:57 36.76416 34.81865 4756 ft 229 kts 153°
2026-05-06 21:57 36.75252 34.83136 4469 ft 225 kts 120°
2026-05-06 21:58 36.74504 34.84812 4212 ft 224 kts 117°
2026-05-06 21:58 36.73740 34.86511 3936 ft 223 kts 118°
2026-05-06 21:58 36.72966 34.88162 3716 ft 219 kts 119°
2026-05-06 21:58 36.72197 34.89759 3420 ft 212 kts 120°
2026-05-06 21:59 36.71505 34.91322 3102 ft 205 kts 106°
2026-05-06 21:59 36.71498 34.92987 3000 ft 181 kts 70°
2026-05-06 21:59 36.72194 34.94267 3002 ft 182 kts 41°
2026-05-06 21:59 36.73246 34.95159 3012 ft 184 kts 30°
2026-05-06 22:00 36.74381 34.95937 3009 ft 184 kts 29°
2026-05-06 22:00 36.75509 34.96723 2861 ft 184 kts 30°
2026-05-06 22:00 36.76608 34.97530 2615 ft 183 kts 31°
2026-05-06 22:00 36.77696 34.98355 2372 ft 182 kts 31°
2026-05-06 22:01 36.78773 34.99183 2118 ft 175 kts 31°
2026-05-06 22:01 36.79766 34.99947 1910 ft 161 kts 31°
2026-05-06 22:01 36.80729 35.00687 1695 ft 159 kts 31°
2026-05-06 22:01 36.81654 35.01395 1472 ft 151 kts 31°
2026-05-06 22:02 36.82517 35.02056 1242 ft 138 kts 31°
2026-05-06 22:02 36.83324 35.02668 1053 ft 133 kts 31°
2026-05-06 22:02 36.84122 35.03273 895 ft 133 kts 31°
2026-05-06 22:02 36.84918 35.03877 721 ft 133 kts 31°
2026-05-06 22:03 36.85709 35.04474 544 ft 133 kts 31°
2026-05-06 22:03 36.86499 35.05083 363 ft 133 kts 31°
2026-05-06 22:03 36.87289 35.05696 198 ft 132 kts 31°
2026-05-06 22:03 36.88076 35.06293 55 ft 130 kts 30°
2026-05-06 22:04 36.88753 35.06809 42 ft 93 kts 32°
2026-05-06 22:04 36.89154 35.07120 42 ft 44 kts 31°
2026-05-06 22:04 36.89288 35.07182 42 ft 13 kts 324°
2026-05-06 22:04 36.89338 35.07084 42 ft 14 kts 301°
2026-05-06 22:05 36.89389 35.06978 42 ft 14 kts 301°
2026-05-06 22:05 36.89443 35.06868 42 ft 15 kts 301°
2026-05-06 22:05 36.89497 35.06759 42 ft 15 kts 301°
2026-05-06 22:05 36.89566 35.06696 42 ft 15 kts 16°
2026-05-06 22:06 36.89647 35.06749 42 ft 15 kts 31°
2026-05-06 22:06 36.89728 35.06811 42 ft 16 kts 32°
2026-05-06 22:06 36.89807 35.06872 42 ft 16 kts 30°
2026-05-06 22:06 36.89877 35.06922 42 ft 14 kts 30°
2026-05-06 22:07 36.89906 35.06927 42 ft 4 kts 330°
2026-05-06 22:07 36.89925 35.06902 42 ft 6 kts 302°
2026-05-06 22:07 36.89939 35.06874 42 ft 4 kts 301°
2026-05-06 22:07 36.89947 35.06858 42 ft 2 kts 300°
2026-05-06 22:08 36.89950 35.06850 42 ft 0 kts 301°